Weather History for Joplin, MO

Change the Weather History Date:

Tuesday, April 2, 2013

  Actual Average Record
Temperature  
Mean Temperature 38 °F 54 °F  
Max Temperature 41 °F 66 °F 86 °F (2007)
Min Temperature 35 °F 43 °F 25 °F (1992)
Degree Days  
Heating Degree Days 27 12  
Month to date heating degree days 46 24  
Since 1 July heating degree days 3819 3786  
Cooling Degree Days 0 1  
Month to date cooling degree days 0 2  
Year to date cooling degree days 1 12  
Moisture  
Dew Point 31 °F    
Average Humidity 70    
Maximum Humidity 85    
Minimum Humidity 55    
Precipitation  
Precipitation 0.13 in 0.12 in 1.71 in (1965)
Month to date precipitation 0.14 0.24  
Year to date precipitation 7.99 8.01  
Snow  
Snow T in - - ()
Month to date snowfall T  
Snow Depth 0.00 in    
Sea Level Pressure  
Sea Level Pressure 30.27 in    
Wind  
Wind Speed 7 mph (ENE)    
Max Wind Speed 13 mph    
Max Gust Speed 18 mph    
Visibility 10 miles    
Events Rain    
T = Trace of Precipitation, MM = Missing Value Source: NWS Daily Summary

Daily Weather History Graph

Daily Weather History Graph

Search for Another Location

Airport:

Trip Planner

Search our weather history database for the weather conditions in past years. The results will help you decide how hot, cold, wet, or windy it might be!

Date:

Astronomy

Apr. 02, 2013 Rise Set
Actual Time 7:01 AM CDT 7:41 PM CDT
Civil Twilight 6:35 AM CDT 8:07 PM CDT
Nautical Twilight 6:04 AM CDT 8:38 PM CDT
Astronomical Twilight 5:32 AM CDT 9:10 PM CDT
Moon 1:41 AM CDT (4/2) 11:59 AM CDT (4/2)
Length of Visible Light 13h 32m
Length of Day
12h 39m
Waning Gibbous, 55% of the Moon is Illuminated
Apr 2
Waning Gibbous
Apr 2
Last Quarter
Apr 10
New
Apr 18
First Quarter
Apr 25
Full

Hourly Weather History & Observations

Time (CDT) Temp. Windchill Dew Point Humidity Pressure Visibility Wind Dir Wind Speed Gust Speed Precip Events Conditions
12:53 AM 41.0 °F 35.8 °F 26.1 °F 55% 30.23 in 10.0 mi NE 8.1 mph - N/A   Overcast
1:53 AM 41.0 °F 38.0 °F 27.0 °F 57% 30.25 in 10.0 mi NE 4.6 mph - N/A   Overcast
2:53 AM 37.9 °F 33.5 °F 30.0 °F 73% 30.27 in 10.0 mi NE 5.8 mph - 0.01 in Rain Light Rain
3:53 AM 36.0 °F 29.0 °F 30.9 °F 82% 30.25 in 10.0 mi NE 9.2 mph - 0.04 in Rain Light Rain
4:53 AM 36.0 °F 30.3 °F 30.9 °F 82% 30.24 in 10.0 mi ENE 6.9 mph - 0.00 in   Overcast
5:53 AM 36.0 °F 31.1 °F 30.9 °F 82% 30.27 in 9.0 mi ENE 5.8 mph - 0.01 in Rain Light Rain
6:53 AM 36.0 °F 31.1 °F 30.9 °F 82% 30.28 in 10.0 mi ENE 5.8 mph - 0.01 in   Overcast
7:53 AM 36.0 °F 29.6 °F 30.9 °F 82% 30.29 in 10.0 mi NE 8.1 mph - 0.01 in Rain Light Rain
8:53 AM 35.1 °F 28.6 °F 30.0 °F 82% 30.31 in 10.0 mi ENE 8.1 mph - 0.00 in Rain Light Rain
9:53 AM 36.0 °F 30.3 °F 30.9 °F 82% 30.30 in 10.0 mi ENE 6.9 mph - 0.00 in   Overcast
10:53 AM 36.0 °F 29.0 °F 30.9 °F 82% 30.30 in 10.0 mi East 9.2 mph - 0.01 in   Overcast
11:53 AM 37.0 °F 30.4 °F 30.9 °F 79% 30.30 in 10.0 mi ENE 9.2 mph - N/A   Overcast
12:53 PM 37.9 °F 32.1 °F 33.1 °F 83% 30.30 in 10.0 mi ENE 8.1 mph - 0.00 in Rain Light Rain
1:53 PM 37.9 °F 32.1 °F 34.0 °F 86% 30.28 in 10.0 mi ENE 8.1 mph - 0.00 in Rain Light Rain
2:53 PM 39.0 °F 32.8 °F 32.0 °F 76% 30.28 in 10.0 mi ENE 9.2 mph - 0.01 in Rain Light Rain
3:53 PM 39.0 °F 32.8 °F 32.0 °F 76% 30.26 in 10.0 mi ENE 9.2 mph - 0.00 in   Overcast
4:53 PM 39.9 °F 33.9 °F 30.9 °F 70% 30.25 in 10.0 mi East 9.2 mph 18.4 mph 0.01 in Rain Light Rain
5:53 PM 39.0 °F 34.0 °F 32.0 °F 76% 30.25 in 10.0 mi ENE 6.9 mph - 0.01 in Rain Light Rain
6:53 PM 39.0 °F 34.8 °F 32.0 °F 76% 30.25 in 10.0 mi East 5.8 mph - 0.01 in Rain Light Rain
7:53 PM 39.0 °F 35.7 °F 32.0 °F 76% 30.25 in 10.0 mi Variable 4.6 mph - 0.00 in   Overcast
8:53 PM 39.0 °F 34.8 °F 32.0 °F 76% 30.25 in 10.0 mi East 5.8 mph - N/A   Mostly Cloudy
9:53 PM 37.9 °F 34.4 °F 30.9 °F 76% 30.26 in 10.0 mi East 4.6 mph - N/A   Mostly Cloudy
10:53 PM 37.9 °F 35.5 °F 32.0 °F 79% 30.26 in 10.0 mi ENE 3.5 mph - N/A   Overcast
11:53 PM 37.9 °F 34.4 °F 32.0 °F 79% 30.27 in 10.0 mi ENE 4.6 mph - N/A   Mostly Cloudy